Meath Environmental Platform

Observations for Trim Patrick St

Time AQI Temp °C Hum % Pres Pa CO μg/m³ H₂S μg/m³ NO μg/m³ NO₂ μg/m³ O₃ μg/m³ SO₂ μg/m³ PM1 μg/m³ PM2.5 μg/m³ PM10 μg/m³
Thursday 27 August 2026
06:22 2 17.5 88 38,373 0.23 0.12 1.44 14.56 30.91 0 24.29 32.77 34.11
06:20 2 17.4 88 38,372 0.23 0 1.29 10.89 40.42 0 25.14 34.81 35.98
06:19 2 17.5 88 38,371 0.22 0 1.01 12.62 34.73 0 25.14 34.81 37.89
06:18 2 17.4 88 38,371 0.23 0 1.13 14.21 29.73 0 26 34.82 38.3
06:17 2 17.4 87 38,370 0.22 0 1.18 15.89 40.16 0 26 35.57 37.45
06:16 2 17.4 87 38,368 0.23 0.23 1.23 15.63 33.74 0 23.43 32.13 32.3
06:15 2 17.4 87 38,368 0.23 0.1 1.25 19.63 34.52 0 26.86 36.29 36.89
06:14 2 17.4 88 38,365 0.23 0.94 1.29 18.8 33.04 0 26.86 34.82 36.02
06:13 2 17.4 87 38,362 0.24 0 1.46 16.83 31.97 0 25.14 31.43 31.63
06:12 2 17.4 88 38,358 0.24 0 1.34 14.96 31.63 0 25.14 32.75 32.8
06:10 2 17.3 87 38,345 0.25 0 1.24 23.21 30.31 0 26.86 34.87 36.14
06:06 2 17.3 87 38,310 0.24 0.42 0.83 17.99 32.15 0 24.29 33.48 37.37
06:05 2 17.3 87 38,288 0.25 0.23 0.97 15.19 31.97 0 25.14 34.23 35.61
06:02 2 17.3 88 38,288 0.24 0 1.13 16.53 27.21 0 24.29 32.03 33.33
06:01 2 17.3 88 38,288 0.24 0 1.28 12.82 32.03 0 22.57 30.69 30.86
06:00 2 17.2 88 38,288 0.25 0 1.21 13.07 29.07 0 26 33.47 36.06
05:59 2 17.2 87 38,288 0.25 0 1.18 18.12 41.87 0 24.29 32.16 35.38
05:58 2 17.2 87 38,288 0.25 0 1.25 15.66 34.42 0 24.29 32.83 33.62
05:53 2 17.2 87 38,288 0.25 0.03 1.69 21.39 39.07 0 24.29 33.61 33.83
05:52 2 17.1 87 38,288 0.25 0 1.5 16.71 36.44 0 26 35.55 38.05